Location: Ballingbuur
(53.0000°N, 5.7667°E)
Time: 20:52:31
(UTC+00:00)

EO 1 Delta rocket - Pass Details

Date: 29 November 2020
Orbit: 698 x 1791 km, 95.4° (Epoch: 24 January)

Event Time Altitude Azimuth Distance (km) Brightness Sun altitude
Rises 05:39:15 0° 184° (S) 3,316 7.5 -15.0°
Reaches altitude 10° 05:41:45 10° 190° (S) 2,297 6.6 -14.7°
Maximum altitude 05:46:29 48° 265° (W) 934 4.1 -14.0°
Drops below altitude 10° 05:50:58 10° 340° (NNW) 2,178 6.0 -13.4°
Sets 05:53:18 0° 347° (NNW) 3,126 6.9 -13.0°
